Tracking 19246 objects as of 21-Aug-2018
HD Live streaming from Space Station
objects crossing your sky now

FENGYUN 1C DEB

Track FENGYUN 1C DEB now!
10-day predictions


NORAD ID: 30484
Int'l Code: 1999-025AGW
Perigee: 614.9 km
Apogee: 702.5 km
Inclination: 99.0 °
Period: 97.8 minutes
Semi major axis: 7029 km
RCS: 0.019 m2 (small)
Launch date: May 10, 1999
Source: People's Republic of China (PRC)
Launch site: Taiyaun Space Center, China (TSC)

Note: This is SATELLITE DEBRIS
aabbcc
Your satellite tracking list
Your tracking list is empty




NASA's NSSDC Master Catalog

Two Line Element Set (TLE):
1 30484U 99025AGW 18232.43977099 +.00001828 +00000-0 +28607-3 0  9993
2 30484 099.0200 215.2163 0062293 243.0087 116.4748 14.72985232612314
Source of the keplerian elements: AFSPC